• In Romania
  • List of Countries
  • For 7 days
  • Water Temperature
  • Satellite Maps
  • Weather Map
  • Weather Widgets
  • user-avatar
    Login

    Hourly Weather Shestakovo

    Today, 25 June, Monday

    Time Temperature Precipitation Wind Pressure Humidity
    00:00 +9°C° 0 mm 2 mps 744 mmHg 97%
    01:00 +8°C° 0 mm 2 mps 744 mmHg 97%
    02:00 +9°C° 0 mm 1 mps 744 mmHg 97%
    03:00 +10°C° 0 mm 1 mps 745 mmHg 96%
    04:00 +9°C° 0 mm 2 mps 745 mmHg 95%
    05:00 +10°C° 0 mm 2 mps 745 mmHg 94%
    06:00 +13°C° 0 mm 2 mps 745 mmHg 84%
    07:00 +15°C° 0 mm 2 mps 746 mmHg 74%
    08:00 +17°C° 0 mm 2 mps 746 mmHg 62%
    09:00 +18°C° 0 mm 3 mps 746 mmHg 57%
    10:00 +19°C° 0 mm 3 mps 746 mmHg 53%
    11:00 +20°C° 0 mm 3 mps 746 mmHg 48%
    12:00 +21°C° 0 mm 3 mps 746 mmHg 47%
    13:00 +21°C° 0 mm 3 mps 746 mmHg 47%
    14:00 +21°C° 0 mm 4 mps 747 mmHg 47%
    15:00 +21°C° 0 mm 3 mps 747 mmHg 48%
    16:00 +21°C° 0 mm 3 mps 747 mmHg 50%
    17:00 +20°C° 0 mm 2 mps 748 mmHg 52%
    18:00 +19°C° 0 mm 2 mps 748 mmHg 61%
    19:00 +17°C° 0 mm 2 mps 748 mmHg 70%
    20:00 +15°C° 0 mm 1 mps 748 mmHg 79%
    21:00 +14°C° 0 mm 1 mps 748 mmHg 84%
    22:00 +13°C° 0 mm 1 mps 749 mmHg 89%
    23:00 +12°C° 0 mm 1 mps 749 mmHg 93%

    Tomorrow, 26 June, Tuesday

    Time Temperature Precipitation Wind Pressure Humidity
    00:00 +12°C° 0 mm 1 mps 749 mmHg 94%
    01:00 +12°C° 0 mm 1 mps 750 mmHg 95%
    02:00 +11°C° 0 mm 1 mps 750 mmHg 96%
    03:00 +12°C° 0 mm 1 mps 750 mmHg 95%
    04:00 +12°C° 0 mm 1 mps 751 mmHg 94%
    05:00 +13°C° 0 mm 1 mps 751 mmHg 93%
    06:00 +15°C° 0 mm 1 mps 751 mmHg 84%
    07:00 +18°C° 0 mm 1 mps 751 mmHg 75%
    08:00 +20°C° 0 mm 1 mps 752 mmHg 66%
    09:00 +22°C° 0 mm 1 mps 752 mmHg 60%
    10:00 +23°C° 0 mm 1 mps 752 mmHg 53%
    11:00 +24°C° 0 mm 1 mps 752 mmHg 47%
    12:00 +25°C° 0 mm 1 mps 752 mmHg 48%
    13:00 +25°C° 0 mm 1 mps 752 mmHg 48%
    14:00 +23°C° 0 mm 0 mps 752 mmHg 49%
    15:00 +23°C° 0 mm 0 mps 752 mmHg 49%
    16:00 +22°C° 0 mm 0 mps 752 mmHg 50%
    17:00 +22°C° 0 mm 0 mps 752 mmHg 51%
    18:00 +20°C° 0 mm 0 mps 752 mmHg 57%
    19:00 +19°C° 0 mm 0 mps 752 mmHg 64%
    20:00 +19°C° 0 mm 1 mps 752 mmHg 71%
    21:00 +18°C° 0 mm 1 mps 753 mmHg 74%
    22:00 +16°C° 0 mm 1 mps 753 mmHg 76%
    23:00 +15°C° 0 mm 1 mps 753 mmHg 79%

    Day after tomorrow, 27 June, Wednesday

    Time Temperature Precipitation Wind Pressure Humidity
    00:00 +14°C° 0 mm 1 mps 753 mmHg 81%
    01:00 +14°C° 0 mm 1 mps 754 mmHg 82%
    02:00 +14°C° 0 mm 1 mps 754 mmHg 84%
    03:00 +14°C° 0 mm 1 mps 754 mmHg 83%
    04:00 +15°C° 0 mm 1 mps 754 mmHg 83%
    05:00 +15°C° 0 mm 1 mps 754 mmHg 82%
    06:00 +18°C° 0 mm 1 mps 754 mmHg 74%
    07:00 +21°C° 0 mm 1 mps 754 mmHg 66%
    08:00 +23°C° 0 mm 1 mps 755 mmHg 58%
    09:00 +24°C° 0 mm 1 mps 755 mmHg 53%
    10:00 +25°C° 0 mm 1 mps 754 mmHg 48%
    11:00 +26°C° 0 mm 1 mps 754 mmHg 43%
    12:00 +27°C° 0 mm 2 mps 754 mmHg 41%
    13:00 +27°C° 0 mm 2 mps 754 mmHg 39%
    14:00 +28°C° 0 mm 2 mps 754 mmHg 38%
    15:00 +27°C° 0 mm 2 mps 754 mmHg 41%
    16:00 +27°C° 0 mm 2 mps 753 mmHg 44%
    17:00 +26°C° 0 mm 2 mps 753 mmHg 47%
    18:00 +25°C° 0 mm 2 mps 753 mmHg 56%
    19:00 +23°C° 0 mm 2 mps 753 mmHg 65%
    20:00 +20°C° 0 mm 2 mps 753 mmHg 74%
    21:00 +19°C° 0 mm 2 mps 753 mmHg 77%
    22:00 +17°C° 0 mm 2 mps 753 mmHg 79%
    23:00 +16°C° 0 mm 2 mps 753 mmHg 82%

    28 June, Thursday

    Time Temperature Precipitation Wind Pressure Humidity
    00:00 +16°C° 0 mm 2 mps 753 mmHg 83%
    01:00 +15°C° 0 mm 1 mps 754 mmHg 84%
    02:00 +15°C° 0 mm 1 mps 754 mmHg 85%
    03:00 +15°C° 0 mm 1 mps 754 mmHg 84%
    04:00 +15°C° 0 mm 1 mps 754 mmHg 83%
    05:00 +16°C° 0 mm 1 mps 754 mmHg 83%
    06:00 +19°C° 0 mm 1 mps 754 mmHg 75%
    07:00 +21°C° 0 mm 1 mps 753 mmHg 67%
    08:00 +23°C° 0 mm 1 mps 753 mmHg 60%
    09:00 +24°C° 0 mm 2 mps 753 mmHg 54%
    10:00 +26°C° 0 mm 2 mps 753 mmHg 48%
    11:00 +27°C° 0 mm 2 mps 752 mmHg 42%
    12:00 +28°C° 0 mm 1 mps 752 mmHg 41%
    13:00 +28°C° 0 mm 1 mps 752 mmHg 39%
    14:00 +29°C° 0 mm 1 mps 751 mmHg 38%
    15:00 +28°C° 0 mm 1 mps 751 mmHg 42%
    16:00 +27°C° 0 mm 1 mps 751 mmHg 46%
    17:00 +27°C° 0 mm 1 mps 750 mmHg 49%
    18:00 +25°C° 0 mm 1 mps 750 mmHg 57%
    19:00 +23°C° 0 mm 1 mps 749 mmHg 65%
    20:00 +21°C° 0 mm 1 mps 749 mmHg 72%
    21:00 +20°C° 0 mm 1 mps 749 mmHg 75%
    22:00 +19°C° 0 mm 1 mps 749 mmHg 77%
    23:00 +18°C° 0 mm 1 mps 749 mmHg 79%

    29 June, Friday

    Time Temperature Precipitation Wind Pressure Humidity
    00:00 +18°C° 0 mm 1 mps 748 mmHg 80%
    01:00 +16°C° 0 mm 1 mps 748 mmHg 81%
    02:00 +16°C° 0 mm 1 mps 747 mmHg 81%
    03:00 +16°C° 0 mm 1 mps 747 mmHg 81%
    04:00 +18°C° 0 mm 1 mps 747 mmHg 81%
    05:00 +18°C° 0 mm 1 mps 746 mmHg 80%
    06:00 +19°C° 0 mm 1 mps 746 mmHg 76%
    07:00 +20°C° 0 mm 2 mps 745 mmHg 72%
    08:00 +21°C° 0 mm 2 mps 745 mmHg 68%
    09:00 +23°C° 0 mm 2 mps 744 mmHg 61%
    10:00 +25°C° 0 mm 2 mps 744 mmHg 54%
    11:00 +26°C° 0 mm 3 mps 743 mmHg 48%
    12:00 +26°C° 0 mm 3 mps 743 mmHg 50%
    13:00 +26°C° 0 mm 2 mps 742 mmHg 52%
    14:00 +26°C° 0 mm 2 mps 742 mmHg 54%
    15:00 +25°C° 0.4 mm 2 mps 741 mmHg 60%
    16:00 +24°C° 0.4 mm 2 mps 740 mmHg 65%
    17:00 +23°C° 0.4 mm 2 mps 740 mmHg 70%
    18:00 +21°C° 1.3 mm 2 mps 740 mmHg 76%
    19:00 +20°C° 1.3 mm 3 mps 739 mmHg 82%
    20:00 +18°C° 1.3 mm 3 mps 739 mmHg 88%
    21:00 +17°C° 0.6 mm 3 mps 739 mmHg 91%
    22:00 +16°C° 0.6 mm 3 mps 739 mmHg 93%
    23:00 +14°C° 0.6 mm 3 mps 739 mmHg 96%

    30 June, Saturday

    Time Temperature Precipitation Wind Pressure Humidity
    00:00 +13°C° 0.6 mm 3 mps 739 mmHg 96%
    01:00 +13°C° 0.6 mm 3 mps 739 mmHg 96%
    02:00 +12°C° 0.6 mm 3 mps 739 mmHg 96%
    03:00 +11°C° 0.1 mm 3 mps 739 mmHg 96%
    04:00 +10°C° 0.1 mm 3 mps 739 mmHg 95%
    05:00 +9°C° 0.1 mm 3 mps 739 mmHg 95%
    06:00 +10°C° 0 mm 4 mps 739 mmHg 88%
    07:00 +11°C° 0 mm 4 mps 739 mmHg 81%
    08:00 +12°C° 0 mm 4 mps 739 mmHg 74%
    09:00 +12°C° 0 mm 4 mps 739 mmHg 74%
    10:00 +12°C° 0 mm 4 mps 739 mmHg 75%
    11:00 +12°C° 0 mm 4 mps 739 mmHg 75%
    12:00 +12°C° 0.1 mm 4 mps 739 mmHg 76%
    13:00 +12°C° 0.1 mm 4 mps 739 mmHg 77%
    14:00 +12°C° 0.1 mm 4 mps 739 mmHg 77%
    15:00 +11°C° 0.1 mm 4 mps 739 mmHg 78%
    16:00 +10°C° 0.1 mm 5 mps 739 mmHg 79%
    17:00 +10°C° 0.1 mm 5 mps 739 mmHg 80%
    18:00 +9°C° 0 mm 5 mps 739 mmHg 81%
    19:00 +9°C° 0 mm 5 mps 739 mmHg 81%
    20:00 +8°C° 0 mm 4 mps 740 mmHg 81%
    21:00 +8°C° 0 mm 4 mps 739 mmHg 81%
    22:00 +7°C° 0 mm 4 mps 739 mmHg 81%
    23:00 +7°C° 0 mm 4 mps 739 mmHg 80%
    Show more